SCP
1 1 1 1 1 1 1 1 1 1 1 1 1 0 0 1 1 1 1 0 0 1 1 1 1 1 0 0 0 0 0 0 0 0 0 0 0 0 0 0 0 0 0
1 1 1 1 1 1 1 1 1 1 1 1 1 1 1 1 1 1 1 1 1 1 1 1 1 0 0 0 1 1 0 0 0 0 0 0 0 0 0 0 0 0 0
1 1 1 1 1 2 2 1 1 1 1 1 1 1 1 1 1 1 1 1 1 1 1 1 1 0 0 1 1 1 1 0 0 0 0 0 0 0 0 0 0 0 0
1 1 1 1 1 2 2 2 1 1 1 1 1 1 1 1 1 1 1 1 1 1 1 1 1 1 1 1 1 1 1 1 0 0 0 0 0 0 0 0 0 0 0
1 1 1 1 2 1 1 1 1 1 1 1 1 1 1 1 1 1 1 1 1 1 1 1 1 1 1 1 1 1 1 1 0 0 0 0 0 0 0 0 0 1 1
2 2 1 2 1 1 2 2 2 1 1 1 1 1 1 1 1 1 1 1 1 1 1 1 1 1 1 1 1 1 1 1 1 0 0 0 0 0 0 0 0 1 1
2 2 2 2 1 2 2 2 2 2 1 1 1 1 1 1 1 1 1 1 1 1 1 1 1 1 1 1 1 1 1 1 1 1 0 0 1 1 1 0 1 1 1
3 2 2 2 2 2 2 2 2 2 2 1 1 1 1 1 1 1 1 1 1 1 1 1 2 2 1 1 1 1 1 1 1 1 0 0 1 1 1 1 0 1 1
2 3 3 2 2 2 2 2 2 2 2 2 2 1 1 1 1 1 1 1 1 1 1 1 1 2 2 1 1 1 1 1 1 1 1 1 1 1 1 1 0 0 0
2 2 3 3 2 2 2 2 2 2 2 2 2 2 2 1 1 1 1 1 1 1 1 1 1 1 1 1 1 1 1 1 1 1 1 1 1 1 1 1 1 1 1
2 2 2 3 3 2 2 2 2 2 2 2 2 2 2 2 1 1 1 1 1 1 1 1 1 1 1 1 1 1 1 1 1 1 1 1 1 1 1 1 1 1 1
3 3 2 3 3 3 2 2 2 2 2 2 2 2 2 2 2 1 1 1 1 1 1 1 2 2 1 1 1 1 1 1 0 0 0 1 1 1 1 1 1 1 1
5 4 3 3 3 3 3 3 2 2 2 2 1 1 2 2 2 1 1 1 1 1 1 1 2 2 1 1 1 1 0 0 0 0 0 1 1 1 1 1 1 1 1
6 5 4 4 3 3 3 3 2 2 2 1 1 1 1 1 1 1 1 1 1 1 1 1 1 1 1 1 1 0 0 0 0 0 0 0 1 1 1 1 0 0 0
7 6 5 4 3 2 2 2 2 2 2 1 1 1 2 2 2 2 2 1 1 1 1 1 1 1 1 1 0 0 0 0 0 0 0 0 0 0 0 0 0 0 0
6 6 5 4 3 3 3 2 2 2 2 2 2 2 2 2 2 2 2 2 2 1 1 1 1 1 1 1 0 0 1 0 0 0 0 0 0 0 0 0 0 0 0
5 5 4 4 4 4 3 3 2 2 2 2 2 2 2 2 2 2 2 2 2 2 1 1 1 2 2 1 1 1 1 1 0 0 0 0 0 0 0 0 0 0 0
4 4 4 4 4 4 4 3 3 3 2 2 3 3 3 3 2 2 2 3 2 2 2 1 2 2 2 2 2 1 1 1 1 0 0 0 0 0 0 0 0 0 0
5 4 4 4 4 4 5 5 4 4 3 3 3 4 4 4 3 3 3 2 2 2 2 1 1 2 2 2 2 2 1 1 1 0 0 0 0 0 0 0 0 0 0
4 4 4 4 4 4 5 6 6 5 5 5 5 5 4 4 4 3 3 2 1 1 1 1 1 1 1 2 2 1 1 1 1 1 0 0 0 0 0 0 0 0 0
5 5 4 4 3 3 4 6 6 6 6 6 5 5 4 4 3 3 2 2 1 1 1 1 1 1 1 1 1 1 1 1 1 1 1 0 0 0 0 0 0 0 0
6 6 6 5 4 3 3 4 5 6 7 6 5 4 4 3 2 2 1 1 1 1 1 1 1 1 1 1 1 1 1 1 1 1 1 1 0 0 0 0 0 0 0
7 8 8 7 5 5 4 3 4 5 6 5 5 4 3 3 2 1 1 0 0 0 0 1 1 1 1 1 2 1 1 1 1 1 1 1 1 0 0 0 0 0 0
7 8 9 7 7 6 4 2 2 4 5 5 5 4 3 2 2 1 1 1 1 1 0 0 1 1 1 1 1 1 1 1 1 1 1 1 1 1 0 0 0 0 0
7 8 7 7 7 6 4 2 2 3 4 4 4 4 3 2 1 1 1 1 1 1 1 0 0 1 1 1 1 1 1 1 1 1 1 1 1 1 1 0 0 0 0
7 7 7 6 6 6 4 1 1 3 4 4 3 3 2 2 1 1 1 2 2 2 1 1 0 0 0 0 0 1 1 1 1 1 1 1 1 1 1 1 0 0 0
Wind_Speed
3 4 2 2 2 2 2 1 1 2 1 1 1 3 4 5 5 7 6 10 10 9 9 9 8 8 7 7 7 7 7 7 6 6 6 5 5 5 5 5 5 5 4
4 3 2 1 1 2 2 1 2 2 0 1 2 2 3 4 5 6 6 7 9 9 9 9 9 8 8 8 7 7 7 7 6 6 6 5 5 5 5 5 5 5 4
5 3 2 2 2 2 3 2 2 1 1 1 2 1 2 3 3 5 6 5 5 8 9 9 9 8 8 8 8 8 7 7 7 6 6 6 5 5 5 5 5 5 5
5 3 2 2 2 2 2 2 1 1 1 1 1 0 2 2 2 3 4 4 5 5 7 10 9 9 8 8 8 8 8 7 7 7 6 6 6 6 6 6 6 6 5
4 3 2 2 2 1 1 2 2 1 1 1 1 1 2 2 2 3 3 4 4 5 5 8 9 8 8 8 8 8 8 8 8 8 7 7 7 6 6 6 7 7 6
4 3 3 3 2 1 1 2 2 1 0 1 1 2 2 2 2 2 2 3 3 5 6 6 5 6 8 7 7 7 8 8 8 8 8 7 7 7 7 7 7 7 7
5 3 2 3 2 1 2 2 2 2 2 1 0 1 1 3 2 2 2 3 3 4 5 6 5 4 4 7 7 7 7 7 7 7 7 7 7 7 7 7 7 7 7
5 5 3 3 3 2 2 2 2 1 1 1 1 1 1 1 1 3 3 3 3 3 4 6 5 5 4 4 5 8 7 7 7 7 8 7 7 7 7 8 8 7 7
5 3 4 3 3 3 3 3 3 3 2 1 1 0 0 0 1 1 3 3 3 3 3 3 5 5 5 4 5 7 7 6 7 7 7 7 6 6 7 8 8 7 7
5 4 4 4 3 2 4 4 4 2 2 2 1 1 1 1 1 1 1 2 3 3 3 3 4 5 5 5 5 8 9 7 7 6 6 7 7 7 7 8 8 8 8
5 5 5 4 4 3 4 3 3 2 1 2 1 1 2 1 2 2 2 2 2 3 3 3 3 4 5 6 5 8 10 9 7 7 6 6 7 7 7 8 9 9 9
4 5 5 4 4 3 3 3 3 3 2 1 1 1 1 1 2 2 2 2 2 3 3 3 3 3 4 5 7 12 12 10 8 7 6 6 7 7 7 8 9 9 9
5 6 6 5 4 4 4 4 3 2 3 2 2 2 1 1 1 1 1 1 1 2 2 3 3 3 4 4 5 12 11 11 9 8 7 7 7 7 7 7 8 8 8
5 7 6 6 5 5 5 4 3 4 3 3 3 2 1 2 1 1 1 1 1 1 2 3 3 4 3 4 7 11 8 11 10 9 9 8 8 8 8 7 7 8 8
5 7 8 7 6 6 5 4 3 3 3 3 3 3 3 2 1 1 1 1 1 1 2 2 2 3 3 3 8 7 5 11 12 10 10 9 9 9 9 8 8 8 8
5 6 7 6 6 6 5 4 3 4 4 3 3 2 2 2 2 2 2 1 1 1 1 1 2 2 2 3 8 5 5 11 13 12 11 11 10 9 9 9 9 9 9
6 6 6 6 6 6 5 5 5 5 5 4 4 4 4 3 2 2 2 2 2 1 1 1 1 2 2 2 4 3 4 5 7 14 13 12 11 11 10 10 10 10 9
6 7 6 6 7 6 6 5 6 5 5 5 5 4 4 4 3 2 2 2 1 1 2 1 1 1 2 3 4 4 4 6 5 11 15 14 13 12 11 11 11 11 10
7 7 7 7 6 6 6 6 5 4 5 5 5 4 4 3 3 2 2 2 1 2 2 2 2 2 2 3 3 4 5 3 5 6 12 13 13 13 13 12 12 11 11
7 7 7 6 6 6 6 5 5 4 4 4 4 4 4 4 3 3 3 2 2 2 1 2 2 2 2 3 2 3 3 2 3 4 4 8 12 14 14 13 12 12 12
8 7 6 6 6 6 6 6 5 5 4 4 3 3 4 3 3 2 2 1 1 2 2 2 2 2 2 1 2 2 2 2 3 2 1 3 3 4 7 11 13 13 12
6 6 6 6 7 6 6 7 5 3 3 4 4 3 4 4 5 5 4 2 1 2 2 2 2 2 1 1 1 1 1 1 2 1 1 3 2 3 4 5 10 13 14
6 6 6 6 5 4 7 7 6 3 4 4 4 4 5 5 6 5 6 6 5 6 5 2 3 3 2 2 1 1 2 2 2 2 2 4 3 3 4 4 10 12 13
5 5 5 5 5 6 8 8 7 5 4 4 4 4 4 2 3 3 5 5 5 5 6 6 4 3 3 2 2 2 3 3 4 3 2 3 3 3 4 2 7 11 12
4 5 5 5 5 5 8 9 7 4 3 4 4 3 3 3 2 2 2 3 3 3 5 6 6 5 4 3 1 1 2 2 4 4 2 3 3 3 3 3 4 9 10
4 4 4 4 4 4 7 8 8 4 4 4 3 3 3 3 3 4 3 3 3 3 3 3 4 5 5 5 6 4 3 3 3 3 2 2 2 2 3 3 1 2 4
Wind_Direction
127 125 128 142 154 144 157 168 94 93 72 38 81 90 82 96 118 118 131 146 147 152 155 158 159 160 160 161 161 160 156 152 148 149 151 153 151 151 151 150 150 149 147
120 123 132 140 140 146 150 146 128 112 100 78 77 89 98 97 110 123 134 149 156 160 163 166 170 172 174 175 174 172 169 166 164 164 164 163 163 163 164 163 162 161 159
123 130 139 175 171 146 136 127 136 137 192 137 118 111 102 102 119 122 139 152 162 174 175 176 178 179 183 185 185 182 180 177 177 180 180 179 179 180 180 178 175 173 173
135 144 158 173 151 143 148 137 171 162 160 136 128 130 108 115 123 140 152 159 161 172 182 185 184 186 189 193 194 190 189 186 186 191 193 191 191 192 194 194 192 187 186
155 172 156 137 173 156 165 173 135 112 104 103 157 154 148 149 155 177 156 155 163 164 168 182 186 189 195 198 199 198 196 194 195 199 203 203 201 199 200 201 199 197 198
170 182 166 159 189 160 140 94 113 126 132 242 241 154 177 167 177 175 176 160 172 173 166 171 176 190 194 196 199 201 200 199 201 205 209 209 210 206 204 205 206 204 205
175 194 179 154 190 157 151 152 151 165 205 188 149 194 197 181 176 178 173 174 182 167 157 165 172 173 179 195 200 201 204 204 204 205 209 214 217 213 209 210 212 213 213
178 188 176 177 179 159 172 174 160 162 225 173 181 187 207 184 217 193 176 179 164 164 169 168 172 174 181 171 192 197 203 206 206 207 208 212 215 213 210 210 213 217 219
186 190 169 183 170 181 171 191 184 188 204 215 203 197 146 169 225 197 201 159 155 168 176 166 173 173 185 164 171 191 194 199 205 209 209 210 213 213 212 212 214 217 221
190 186 177 181 182 191 167 196 185 190 191 213 200 202 194 151 174 165 239 173 178 178 182 188 171 178 177 161 169 174 182 189 198 205 210 211 210 210 211 216 221 225 227
198 194 181 177 186 197 179 189 157 193 205 216 213 199 197 191 215 195 197 194 204 183 179 188 172 181 176 166 169 176 181 188 195 204 212 217 217 215 218 224 231 235 236
195 201 186 178 184 196 175 176 176 189 193 202 274 281 215 189 221 217 196 200 204 196 177 174 179 187 183 175 180 172 180 186 192 202 213 221 224 223 224 227 235 241 242
188 197 191 177 183 184 177 180 181 199 191 196 223 250 253 235 227 219 175 201 204 191 177 186 187 189 195 158 157 169 180 186 193 202 212 218 223 225 229 234 239 244 247
186 180 180 178 182 183 189 180 187 196 191 203 226 226 258 259 249 204 190 185 221 222 198 194 180 185 181 156 166 177 180 191 195 202 210 217 222 227 229 231 236 242 248
186 176 178 181 182 186 185 174 202 201 176 198 223 212 223 246 246 231 232 201 190 224 229 198 169 176 171 144 160 188 182 194 199 205 211 217 223 226 225 227 231 238 242
179 170 178 179 182 182 180 183 201 197 189 205 219 214 218 243 257 245 235 228 209 207 239 209 189 161 165 166 174 202 188 186 201 208 212 216 221 222 221 223 229 234 239
175 175 177 177 181 181 182 191 210 191 196 211 222 205 211 231 254 275 255 239 217 184 229 256 149 131 152 144 163 218 197 187 204 212 214 216 219 221 223 228 231 235 238
183 181 181 182 187 188 186 192 214 200 198 209 222 218 208 215 213 248 284 275 236 178 193 236 198 175 185 186 195 221 233 222 215 206 209 215 218 222 226 230 233 235 237
189 185 185 186 190 186 187 198 207 207 204 205 207 206 204 215 212 228 248 276 283 251 193 222 235 203 207 204 199 233 252 246 243 214 205 214 221 223 226 230 232 233 235
189 187 187 186 188 190 192 198 203 209 206 206 204 202 208 208 208 224 233 240 265 288 259 241 244 220 211 206 185 229 256 244 254 242 209 207 218 224 228 230 230 231 232
191 187 186 187 190 195 199 191 198 204 202 208 207 205 209 195 186 198 241 243 273 276 276 255 254 240 208 197 207 236 249 250 253 253 232 229 210 216 223 230 231 231 229
188 183 187 190 196 203 180 175 189 202 199 209 210 210 204 196 189 191 190 183 192 245 280 302 292 292 259 220 224 273 287 290 283 287 282 269 235 227 227 220 213 214 218
181 182 186 189 189 179 163 165 181 201 213 214 213 215 233 224 197 197 204 215 225 228 219 238 276 292 308 322 307 296 301 298 279 280 276 275 269 261 253 233 207 210 214
177 183 186 186 180 182 174 172 180 208 229 225 222 221 226 236 233 214 212 211 217 220 219 220 232 253 275 298 284 269 270 272 266 259 238 264 273 270 279 240 211 211 213
178 183 183 184 186 181 178 176 180 204 221 229 231 228 215 203 209 217 237 235 224 230 225 215 213 218 220 237 246 281 273 275 277 270 232 235 260 271 270 259 226 217 219
179 181 180 181 182 182 181 183 187 213 223 221 218 216 215 206 194 193 214 235 239 252 268 222 217 228 232 235 226 223 245 261 274 278 266 247 267 285 282 272 271 220 237